History for Altus AFB, OK

Tuesday, June 22, 2010 — View Current Conditions

Jump to Data:

Date:
Airport Code:
Recently Viewed Airport Codes: KLTS
Daily Summary
  Actual Average Record
Temperature
Mean Temperature 86°F °F  
Max Temperature 98°F 89°F 105°F (1998)
Min Temperature 73°F 68°F 55°F (2001)
Cooling Degree Days 20    
Growing Degree Days 36 (Base 50)    
Moisture
Dew Point 67°F    
Average Humidity 53    
Maximum Humidity 84    
Minimum Humidity 31    
Precipitation
Precipitation 0.00 in in in ()
Sea Level Pressure
Sea Level Pressure 29.91 in    
Wind
Wind Speed 13 mph (SSE)    
Max Wind Speed 22 mph    
Max Gust Speed 30 mph    
Visibility 10 miles    
Events      
Averages and records for this station are not official NWS values.
T = Trace of Precipitation, MM = Missing Value Source: NWS Daily Summary
Seasonal Weather Averages

Show full METARS

(help) - Comma Delimited File

Hourly Observations

Time(CDT) Temperature Dew Point Humidity Sea Level Pressure Visibility Wind Direction Wind Speed Gust Speed Precipitation Events Conditions
12:55 AM 81.9°F 67.8°F 62% 29.89 in 10.0 miles SE 13.8 mph - N/A   Clear
1:55 AM 79.9°F 68.4°F 68% 29.87 in 10.0 miles SE 13.8 mph - N/A   Clear
2:55 AM 79.2°F 68.4°F 69% 29.87 in 10.0 miles SSE 11.5 mph - N/A   Clear
3:55 AM 77.7°F 68.5°F 73% 29.88 in 10.0 miles SSE 10.4 mph - N/A   Clear
4:55 AM 76.6°F 68.4°F 75% 29.90 in 10.0 miles SSE 9.2 mph - N/A   Clear
5:55 AM 74.3°F 68.2°F 81% 29.91 in 10.0 miles SE 8.1 mph - N/A   Clear
6:55 AM 73.4°F 68.4°F 84% 29.93 in 10.0 miles SE 8.1 mph - N/A   Clear
7:55 AM 77.9°F 69.1°F 74% 29.95 in 10.0 miles SE 10.4 mph - N/A   Clear
8:55 AM 82.4°F 69.1°F 64% 29.95 in 10.0 miles South 15.0 mph - N/A   Clear
9:55 AM 86.7°F 68.7°F 55% 29.96 in 10.0 miles South 16.1 mph 23.0 mph N/A   Clear
10:55 AM 89.4°F 68.7°F 50% 29.96 in 10.0 miles South 13.8 mph - N/A   Clear
11:55 AM 92.1°F 68.9°F 46% 29.95 in 10.0 miles South 15.0 mph - N/A   Clear
12:55 PM 94.3°F 68.4°F 43% 29.94 in 10.0 miles SSE 12.7 mph 29.9 mph N/A   Clear
1:55 PM 95.0°F 68.0°F 41% 29.91 in 10.0 miles SE 17.3 mph 23.0 mph N/A   Clear
2:55 PM 97.3°F 64.8°F 34% 29.91 in - SSE 16.1 mph 25.3 mph N/A   Clear
3:55 PM 97.9°F 64.8°F 34% 29.90 in - SSE 17.3 mph 24.2 mph N/A   Clear
4:55 PM 98.2°F 64.0°F 32% 29.87 in - SSE 21.9 mph 26.5 mph N/A   Clear
5:55 PM 98.1°F 62.4°F 31% 29.86 in - South 19.6 mph 28.8 mph N/A   Clear
6:55 PM 96.4°F 62.1°F 32% 29.86 in 10.0 miles SSE 20.7 mph 25.3 mph N/A   Clear
7:55 PM 93.9°F 62.6°F 35% 29.86 in - SSE 18.4 mph 25.3 mph N/A   Clear
8:55 PM 90.5°F 62.1°F 39% 29.87 in - SSE 13.8 mph - N/A   Clear
9:55 PM 87.3°F 65.1°F 48% 29.89 in - SE 11.5 mph - N/A   Clear
10:55 PM 84.6°F 64.9°F 52% 29.94 in 10.0 miles SE 10.4 mph - N/A   Clear
11:55 PM 83.8°F 65.7°F 54% 29.94 in 10.0 miles SE 13.8 mph 21.9 mph N/A   Clear